NKS556 NZAA-YSSY

Flight info

Callsign NKS556
Flight time 3h 10m
Altitude 38000
Route VELMO DCT 38S163E DCT PLUGA DCT RIKNI N774 MARLN
Aircraft A20N/M-SDE2E3FGHIRWXY/LB1

Departure

Time 2026-05-06 14:42
Airport Auckland International Airport (NZAA)

Arrival

Time 2026-05-06 17:53
Airport Sydney Kingsford Smith International Airport (YSSY)
Time Latitude Longitude Altitude Speed Heading
2026-05-06 14:24 -37.00666 174.78165 29 ft 0 kts 118°
2026-05-06 14:32 -37.00663 174.78158 29 ft 4 kts 118°
2026-05-06 14:32 -37.00650 174.78129 29 ft 4 kts 118°
2026-05-06 14:33 -37.00637 174.78099 29 ft 4 kts 118°
2026-05-06 14:33 -37.00625 174.78070 29 ft 4 kts 119°
2026-05-06 14:33 -37.00612 174.78040 29 ft 4 kts 119°
2026-05-06 14:33 -37.00609 174.78032 29 ft 4 kts 122°
2026-05-06 14:34 -37.00630 174.78046 29 ft 4 kts 166°
2026-05-06 14:34 -37.00657 174.78046 29 ft 4 kts 185°
2026-05-06 14:34 -37.00683 174.78039 29 ft 4 kts 194°
2026-05-06 14:34 -37.00709 174.78028 29 ft 4 kts 202°
2026-05-06 14:35 -37.00722 174.78021 29 ft 1 kts 205°
2026-05-06 14:37 -37.00724 174.78020 29 ft 2 kts 205°
2026-05-06 14:37 -37.00770 174.78006 29 ft 9 kts 180°
2026-05-06 14:37 -37.00830 174.78025 29 ft 10 kts 159°
2026-05-06 14:38 -37.00912 174.78062 29 ft 14 kts 162°
2026-05-06 14:38 -37.01005 174.78102 29 ft 13 kts 159°
2026-05-06 14:38 -37.01068 174.78057 29 ft 12 kts 253°
2026-05-06 14:38 -37.01095 174.77956 29 ft 13 kts 251°
2026-05-06 14:39 -37.01126 174.77844 29 ft 14 kts 250°
2026-05-06 14:39 -37.01159 174.77749 29 ft 10 kts 222°
2026-05-06 14:39 -37.01226 174.77747 29 ft 8 kts 180°
2026-05-06 14:39 -37.01273 174.77684 29 ft 14 kts 247°
2026-05-06 14:40 -37.01309 174.77548 29 ft 20 kts 251°
2026-05-06 14:40 -37.01362 174.77356 29 ft 25 kts 251°
2026-05-06 14:40 -37.01418 174.77159 29 ft 18 kts 250°
2026-05-06 14:40 -37.01499 174.77097 29 ft 14 kts 190°
2026-05-06 14:41 -37.01593 174.77085 29 ft 12 kts 166°
2026-05-06 14:41 -37.01615 174.77148 29 ft 9 kts 65°
2026-05-06 14:41 -37.01598 174.77202 29 ft 0 kts 71°
2026-05-06 14:42 -37.01568 174.77312 29 ft 50 kts 71°
2026-05-06 14:42 -37.01360 174.78066 29 ft 132 kts 71°
2026-05-06 14:42 -37.01008 174.79338 368 ft 164 kts 70°
2026-05-06 14:42 -37.00659 174.80674 1254 ft 161 kts 71°
2026-05-06 14:43 -37.00362 174.82056 2044 ft 173 kts 69°
2026-05-06 14:43 -37.00035 174.83607 2782 ft 193 kts 71°
2026-05-06 14:43 -36.99831 174.85322 3708 ft 208 kts 83°
2026-05-06 14:43 -37.00085 174.87157 4878 ft 224 kts 110°
2026-05-06 14:44 -37.01139 174.88643 6062 ft 239 kts 149°
2026-05-06 14:44 -37.02767 174.89057 7188 ft 244 kts 190°
2026-05-06 14:44 -37.04333 174.88298 8318 ft 243 kts 212°
2026-05-06 14:45 -37.07312 174.86023 9749 ft 261 kts 213°
2026-05-06 14:45 -37.08896 174.84855 10440 ft 267 kts 212°
2026-05-06 14:45 -37.10520 174.83697 11156 ft 270 kts 211°
2026-05-06 14:45 -37.12148 174.82506 11896 ft 271 kts 216°
2026-05-06 14:46 -37.13570 174.80969 12630 ft 270 kts 233°
2026-05-06 14:46 -37.14583 174.78981 13089 ft 282 kts 248°
2026-05-06 14:46 -37.15367 174.76637 13420 ft 301 kts 251°
2026-05-06 14:46 -37.16136 174.74100 13757 ft 321 kts 252°
2026-05-06 14:47 -37.16951 174.71408 14090 ft 340 kts 251°
2026-05-06 14:47 -37.17822 174.68562 14387 ft 358 kts 251°
2026-05-06 14:47 -37.18743 174.65580 14679 ft 375 kts 251°
2026-05-06 14:47 -37.19703 174.62482 15105 ft 385 kts 251°
2026-05-06 14:48 -37.20682 174.59329 15673 ft 391 kts 251°
2026-05-06 14:48 -37.21673 174.56137 16296 ft 394 kts 251°
2026-05-06 14:48 -37.22673 174.52914 16917 ft 398 kts 251°
2026-05-06 14:48 -37.23680 174.49664 17529 ft 401 kts 250°
2026-05-06 14:49 -37.24695 174.46383 18122 ft 404 kts 250°
2026-05-06 14:49 -37.25716 174.43082 18694 ft 408 kts 250°
2026-05-06 14:49 -37.26733 174.39786 19186 ft 411 kts 250°
2026-05-06 14:49 -37.27771 174.36419 19686 ft 414 kts 250°
2026-05-06 14:50 -37.28812 174.33037 20202 ft 416 kts 250°
2026-05-06 14:50 -37.29858 174.29635 20728 ft 419 kts 250°
2026-05-06 14:50 -37.30910 174.26208 21263 ft 422 kts 251°
2026-05-06 14:50 -37.31968 174.22759 21790 ft 424 kts 251°
2026-05-06 14:51 -37.33031 174.19290 22281 ft 427 kts 251°
2026-05-06 14:51 -37.34101 174.15793 22788 ft 430 kts 251°
2026-05-06 14:51 -37.35178 174.12268 23282 ft 433 kts 251°
2026-05-06 14:51 -37.36261 174.08722 23763 ft 436 kts 251°
2026-05-06 14:52 -37.37350 174.05147 24163 ft 439 kts 251°
2026-05-06 14:52 -37.38445 174.01550 24580 ft 441 kts 251°
2026-05-06 14:52 -37.39542 173.97943 24987 ft 443 kts 251°
2026-05-06 14:52 -37.40644 173.94314 25415 ft 444 kts 251°
2026-05-06 14:53 -37.41733 173.90722 25812 ft 446 kts 252°
2026-05-06 14:53 -37.42845 173.87049 26147 ft 450 kts 251°
2026-05-06 14:53 -37.43962 173.83354 26501 ft 453 kts 251°
2026-05-06 14:53 -37.45083 173.79643 26921 ft 454 kts 251°
2026-05-06 14:54 -37.46208 173.75917 27278 ft 456 kts 251°
2026-05-06 14:54 -37.47334 173.72178 27672 ft 457 kts 251°
2026-05-06 14:54 -37.48459 173.68440 28164 ft 456 kts 251°
2026-05-06 14:54 -37.49578 173.64719 28737 ft 453 kts 251°
2026-05-06 14:55 -37.50690 173.61014 29259 ft 450 kts 251°
2026-05-06 14:55 -37.51792 173.57335 29781 ft 449 kts 251°
2026-05-06 14:55 -37.52890 173.53665 30291 ft 447 kts 251°
2026-05-06 14:55 -37.53982 173.50010 30755 ft 445 kts 251°
2026-05-06 14:56 -37.55069 173.46369 31246 ft 441 kts 251°
2026-05-06 14:56 -37.56146 173.42755 31669 ft 440 kts 251°
2026-05-06 14:56 -37.57219 173.39149 32067 ft 438 kts 251°
2026-05-06 14:56 -37.58286 173.35558 32448 ft 437 kts 251°
2026-05-06 14:57 -37.59351 173.31972 32841 ft 436 kts 251°
2026-05-06 14:57 -37.60409 173.28403 33218 ft 434 kts 251°
2026-05-06 14:57 -37.61464 173.24840 33593 ft 433 kts 251°
2026-05-06 14:57 -37.62514 173.21288 33952 ft 432 kts 251°
2026-05-06 14:58 -37.63546 173.17793 34298 ft 430 kts 251°
2026-05-06 14:58 -37.64589 173.14255 34590 ft 429 kts 251°
2026-05-06 14:58 -37.65627 173.10733 34878 ft 428 kts 251°
2026-05-06 14:58 -37.66328 173.08350 35061 ft 428 kts 251°
2026-05-06 14:59 -37.67699 173.03686 35411 ft 427 kts 251°
2026-05-06 14:59 -37.68729 173.00173 35665 ft 426 kts 251°
2026-05-06 14:59 -37.69757 172.96667 35925 ft 425 kts 251°
2026-05-06 14:59 -37.70452 172.94293 36086 ft 425 kts 251°
2026-05-06 15:00 -37.71474 172.90796 36321 ft 424 kts 251°
2026-05-06 15:00 -37.72496 172.87296 36568 ft 424 kts 251°
2026-05-06 15:00 -37.73505 172.83838 36777 ft 423 kts 251°
2026-05-06 15:00 -37.74521 172.80350 37025 ft 422 kts 251°
2026-05-06 15:01 -37.75535 172.76864 37256 ft 422 kts 251°
2026-05-06 15:01 -37.76546 172.73383 37464 ft 421 kts 251°
2026-05-06 15:01 -37.77544 172.69945 37664 ft 421 kts 251°
2026-05-06 15:01 -37.78550 172.66473 37867 ft 420 kts 251°
2026-05-06 15:02 -37.79555 172.63003 38067 ft 420 kts 251°
2026-05-06 15:02 -37.80557 172.59537 38238 ft 420 kts 251°
2026-05-06 15:02 -37.81561 172.56055 38263 ft 421 kts 251°
2026-05-06 15:03 -37.83563 172.49110 38263 ft 419 kts 251°
2026-05-06 15:03 -37.85554 172.42181 38259 ft 419 kts 251°
2026-05-06 15:04 -37.87539 172.35258 38257 ft 418 kts 251°
2026-05-06 15:04 -37.89502 172.28389 38257 ft 417 kts 251°
2026-05-06 15:05 -37.91473 172.21478 38247 ft 417 kts 251°
2026-05-06 15:05 -37.93441 172.14560 38253 ft 417 kts 252°
2026-05-06 15:06 -37.95403 172.07643 38243 ft 417 kts 252°
2026-05-06 15:06 -37.97360 172.00730 38250 ft 416 kts 252°
2026-05-06 15:07 -37.99308 171.93827 38238 ft 415 kts 252°
2026-05-06 15:07 -38.01248 171.86936 38235 ft 415 kts 252°
2026-05-06 15:08 -38.03182 171.80046 38235 ft 415 kts 252°
2026-05-06 15:08 -38.05103 171.73188 38231 ft 414 kts 252°
2026-05-06 15:09 -38.07030 171.66286 38230 ft 414 kts 252°
2026-05-06 15:09 -38.08950 171.59395 38223 ft 413 kts 252°
2026-05-06 15:10 -38.10860 171.52520 38223 ft 413 kts 252°
2026-05-06 15:10 -38.12765 171.45645 38221 ft 412 kts 252°
2026-05-06 15:11 -38.14665 171.38770 38222 ft 412 kts 253°
2026-05-06 15:11 -38.16551 171.31931 38215 ft 412 kts 253°
2026-05-06 15:12 -38.18443 171.25048 38208 ft 412 kts 253°
2026-05-06 15:12 -38.20328 171.18176 38196 ft 410 kts 253°
2026-05-06 15:13 -38.22202 171.11321 38207 ft 410 kts 253°
2026-05-06 15:13 -38.24063 171.04499 38207 ft 410 kts 253°
2026-05-06 15:14 -38.25929 170.97639 38193 ft 410 kts 253°
2026-05-06 15:14 -38.27109 170.90595 38214 ft 406 kts 268°
2026-05-06 15:15 -38.27252 170.83417 38197 ft 403 kts 271°
2026-05-06 15:15 -38.27201 170.76277 38200 ft 403 kts 271°
2026-05-06 15:16 -38.27142 170.69191 38195 ft 403 kts 271°
2026-05-06 15:16 -38.27106 170.62014 38193 ft 403 kts 271°
2026-05-06 15:17 -38.27081 170.54919 38195 ft 403 kts 271°
2026-05-06 15:17 -38.27054 170.47804 38187 ft 400 kts 271°
2026-05-06 15:18 -38.27022 170.40744 38177 ft 398 kts 271°
2026-05-06 15:18 -38.26985 170.33695 38177 ft 398 kts 271°
2026-05-06 15:19 -38.26944 170.26652 38166 ft 398 kts 271°
2026-05-06 15:19 -38.26899 170.19654 38167 ft 398 kts 271°
2026-05-06 15:20 -38.26849 170.12615 38164 ft 396 kts 272°
2026-05-06 15:20 -38.26796 170.05647 38164 ft 392 kts 272°
2026-05-06 15:21 -38.26739 169.98699 38160 ft 392 kts 272°
2026-05-06 15:21 -38.26677 169.91755 38159 ft 392 kts 272°
2026-05-06 15:22 -38.26611 169.84812 38154 ft 392 kts 272°
2026-05-06 15:22 -38.26543 169.77916 38163 ft 392 kts 272°
2026-05-06 15:23 -38.26469 169.70996 38150 ft 390 kts 272°
2026-05-06 15:23 -38.26392 169.64083 38144 ft 390 kts 272°
2026-05-06 15:24 -38.26311 169.57178 38140 ft 390 kts 272°
2026-05-06 15:24 -38.26225 169.50268 38144 ft 390 kts 272°
2026-05-06 15:25 -38.26136 169.43369 38141 ft 390 kts 272°
2026-05-06 15:25 -38.26044 169.36471 38129 ft 389 kts 273°
2026-05-06 15:26 -38.25946 169.29578 38133 ft 388 kts 273°
2026-05-06 15:26 -38.25845 169.22706 38120 ft 388 kts 273°
2026-05-06 15:27 -38.25740 169.15872 38121 ft 388 kts 273°
2026-05-06 15:27 -38.25631 169.08990 38113 ft 388 kts 273°
2026-05-06 15:28 -38.25518 169.02111 38120 ft 388 kts 273°
2026-05-06 15:28 -38.25401 168.95242 38107 ft 388 kts 273°
2026-05-06 15:29 -38.25280 168.88402 38107 ft 388 kts 273°
2026-05-06 15:29 -38.25155 168.81532 38116 ft 388 kts 273°
2026-05-06 15:30 -38.25026 168.74662 38116 ft 388 kts 274°
2026-05-06 15:30 -38.24894 168.67802 38098 ft 388 kts 274°
2026-05-06 15:31 -38.24757 168.60941 38093 ft 388 kts 274°
2026-05-06 15:31 -38.24616 168.54078 38087 ft 388 kts 274°
2026-05-06 15:32 -38.24397 168.43796 38084 ft 388 kts 274°
2026-05-06 15:32 -38.24247 168.36934 38078 ft 388 kts 274°
2026-05-06 15:33 -38.24093 168.30120 38094 ft 388 kts 275°
2026-05-06 15:33 -38.23936 168.23272 38072 ft 387 kts 275°
2026-05-06 15:34 -38.23773 168.16427 38076 ft 387 kts 275°
2026-05-06 15:34 -38.23606 168.09577 38067 ft 387 kts 275°
2026-05-06 15:35 -38.23435 168.02733 38060 ft 387 kts 275°
2026-05-06 15:35 -38.23261 167.95896 38062 ft 387 kts 275°
2026-05-06 15:36 -38.23085 167.89096 38058 ft 387 kts 275°
2026-05-06 15:36 -38.22902 167.82246 38058 ft 388 kts 275°
2026-05-06 15:37 -38.22715 167.75398 38051 ft 387 kts 275°
2026-05-06 15:37 -38.22525 167.68548 38050 ft 387 kts 275°
2026-05-06 15:38 -38.22330 167.61694 38043 ft 387 kts 275°
2026-05-06 15:38 -38.22132 167.54830 38043 ft 388 kts 276°
2026-05-06 15:39 -38.21928 167.47953 38035 ft 389 kts 276°
2026-05-06 15:39 -38.21721 167.41070 38033 ft 389 kts 276°
2026-05-06 15:40 -38.21511 167.34225 38024 ft 390 kts 276°
2026-05-06 15:40 -38.21295 167.27331 38024 ft 390 kts 276°
2026-05-06 15:41 -38.21075 167.20439 38021 ft 390 kts 277°
2026-05-06 15:41 -38.20850 167.13518 38021 ft 392 kts 277°
2026-05-06 15:42 -38.20622 167.06624 38007 ft 392 kts 277°
2026-05-06 15:42 -38.20389 166.99691 38004 ft 392 kts 277°
2026-05-06 15:43 -38.20152 166.92757 37996 ft 392 kts 277°
2026-05-06 15:43 -38.19911 166.85837 37999 ft 392 kts 277°
2026-05-06 15:44 -38.19666 166.78929 37992 ft 395 kts 277°
2026-05-06 15:44 -38.19414 166.71952 37992 ft 395 kts 277°
2026-05-06 15:45 -38.19159 166.64969 37994 ft 395 kts 277°
2026-05-06 15:45 -38.18900 166.57990 37985 ft 395 kts 277°
2026-05-06 15:46 -38.18636 166.51013 37992 ft 395 kts 278°
2026-05-06 15:46 -38.18368 166.44026 37980 ft 396 kts 278°
2026-05-06 15:47 -38.18096 166.37070 37982 ft 397 kts 278°
2026-05-06 15:47 -38.17819 166.30063 37977 ft 397 kts 278°
2026-05-06 15:48 -38.17585 166.24237 37977 ft 397 kts 278°
2026-05-06 15:48 -38.17300 166.17231 37969 ft 397 kts 278°
2026-05-06 15:49 -38.17011 166.10231 37969 ft 397 kts 278°
2026-05-06 15:49 -38.16716 166.03200 37966 ft 398 kts 278°
2026-05-06 15:50 -38.16420 165.96214 37966 ft 398 kts 278°
2026-05-06 15:50 -38.16118 165.89187 37963 ft 398 kts 278°
2026-05-06 15:51 -38.15811 165.82160 37963 ft 398 kts 278°
2026-05-06 15:51 -38.15500 165.75130 37960 ft 398 kts 278°
2026-05-06 15:52 -38.15185 165.68112 37955 ft 398 kts 278°
2026-05-06 15:52 -38.14866 165.61100 37952 ft 398 kts 278°
2026-05-06 15:53 -38.14543 165.54079 37949 ft 398 kts 278°
2026-05-06 15:53 -38.14217 165.47105 37949 ft 398 kts 278°
2026-05-06 15:54 -38.13886 165.40094 37949 ft 398 kts 278°
2026-05-06 15:54 -38.13550 165.33074 37949 ft 397 kts 278°
2026-05-06 15:55 -38.13211 165.26067 37949 ft 397 kts 279°
2026-05-06 15:55 -38.12867 165.19057 37949 ft 397 kts 279°
2026-05-06 15:56 -38.12519 165.12046 37947 ft 397 kts 279°
2026-05-06 15:56 -38.12166 165.05036 37952 ft 397 kts 279°
2026-05-06 15:57 -38.11812 164.98072 37947 ft 398 kts 279°
2026-05-06 15:57 -38.11451 164.91059 37947 ft 398 kts 279°
2026-05-06 15:58 -38.11087 164.84054 37946 ft 398 kts 279°
2026-05-06 15:58 -38.10717 164.77037 37944 ft 397 kts 279°
2026-05-06 15:59 -38.10344 164.70033 37958 ft 397 kts 279°
2026-05-06 15:59 -38.09968 164.63033 37946 ft 397 kts 279°
2026-05-06 16:00 -38.09587 164.56041 37969 ft 397 kts 279°
2026-05-06 16:00 -38.09201 164.49039 37947 ft 398 kts 279°
2026-05-06 16:01 -38.08813 164.42067 37949 ft 399 kts 280°
2026-05-06 16:01 -38.08409 164.35043 37966 ft 399 kts 280°
2026-05-06 16:02 -38.08000 164.28012 37943 ft 400 kts 279°
2026-05-06 16:02 -38.07603 164.20944 37948 ft 401 kts 279°
2026-05-06 16:03 -38.07201 164.13886 37951 ft 401 kts 279°
2026-05-06 16:03 -38.06790 164.06833 37945 ft 401 kts 279°
2026-05-06 16:04 -38.06373 163.99787 37965 ft 401 kts 279°
2026-05-06 16:04 -38.05949 163.92722 37951 ft 402 kts 279°
2026-05-06 16:05 -38.05524 163.85694 37950 ft 402 kts 279°
2026-05-06 16:05 -38.05091 163.78606 37950 ft 402 kts 279°
2026-05-06 16:06 -38.04655 163.71524 37945 ft 402 kts 279°
2026-05-06 16:06 -38.04214 163.64442 37970 ft 402 kts 279°
2026-05-06 16:07 -38.03770 163.57392 37949 ft 404 kts 279°
2026-05-06 16:07 -38.03318 163.50284 37949 ft 404 kts 279°
2026-05-06 16:08 -38.02863 163.43173 37952 ft 404 kts 279°
2026-05-06 16:08 -38.02403 163.36064 37950 ft 404 kts 279°
2026-05-06 16:09 -38.01939 163.28957 37964 ft 404 kts 279°
2026-05-06 16:09 -38.01470 163.21849 37952 ft 404 kts 279°
2026-05-06 16:10 -38.01000 163.14779 37952 ft 405 kts 279°
2026-05-06 16:10 -38.00522 163.07670 37952 ft 405 kts 279°
2026-05-06 16:11 -37.99917 163.00590 37953 ft 401 kts 285°
2026-05-06 16:11 -37.98496 162.93779 37973 ft 399 kts 289°
2026-05-06 16:12 -37.96872 162.87081 37961 ft 400 kts 290°
2026-05-06 16:12 -37.95185 162.80333 37959 ft 400 kts 290°
2026-05-06 16:13 -37.93510 162.73610 37954 ft 400 kts 290°
2026-05-06 16:13 -37.91853 162.66936 37960 ft 400 kts 290°
2026-05-06 16:14 -37.90184 162.60213 37969 ft 400 kts 290°
2026-05-06 16:14 -37.88512 162.53499 37965 ft 400 kts 290°
2026-05-06 16:15 -37.86832 162.46771 37966 ft 400 kts 290°
2026-05-06 16:15 -37.85148 162.40043 37963 ft 400 kts 290°
2026-05-06 16:16 -37.83472 162.33368 37967 ft 400 kts 290°
2026-05-06 16:16 -37.81780 162.26646 37964 ft 400 kts 290°
2026-05-06 16:17 -37.80085 162.19937 37962 ft 400 kts 290°
2026-05-06 16:17 -37.78387 162.13227 37965 ft 400 kts 290°
2026-05-06 16:18 -37.76684 162.06518 37960 ft 400 kts 290°
2026-05-06 16:18 -37.74992 161.99868 37960 ft 400 kts 290°
2026-05-06 16:19 -37.73283 161.93172 37966 ft 400 kts 290°
2026-05-06 16:19 -37.71570 161.86478 37963 ft 400 kts 290°
2026-05-06 16:20 -37.69851 161.79776 37968 ft 400 kts 290°
2026-05-06 16:20 -37.68131 161.73090 37968 ft 400 kts 290°
2026-05-06 16:21 -37.66409 161.66413 37968 ft 399 kts 290°
2026-05-06 16:21 -37.64689 161.59759 37968 ft 398 kts 290°
2026-05-06 16:22 -37.62966 161.53114 37966 ft 399 kts 290°
2026-05-06 16:22 -37.61239 161.46474 37968 ft 401 kts 290°
2026-05-06 16:23 -37.59498 161.39796 37966 ft 401 kts 290°
2026-05-06 16:23 -37.57755 161.33125 37966 ft 401 kts 290°
2026-05-06 16:24 -37.56006 161.26447 37966 ft 401 kts 290°
2026-05-06 16:24 -37.54265 161.19821 37964 ft 401 kts 290°
2026-05-06 16:25 -37.52510 161.13158 37968 ft 401 kts 290°
2026-05-06 16:25 -37.50750 161.06494 37968 ft 401 kts 290°
2026-05-06 16:26 -37.48985 160.99826 37968 ft 401 kts 290°
2026-05-06 16:26 -37.47218 160.93171 37965 ft 401 kts 290°
2026-05-06 16:27 -37.45449 160.86523 37974 ft 401 kts 290°
2026-05-06 16:27 -37.43675 160.79874 37970 ft 400 kts 290°
2026-05-06 16:28 -37.41912 160.73283 37970 ft 400 kts 290°
2026-05-06 16:28 -37.40121 160.66605 37973 ft 400 kts 290°
2026-05-06 16:29 -37.38348 160.60013 37971 ft 400 kts 290°
2026-05-06 16:29 -37.36560 160.53378 37985 ft 400 kts 290°
2026-05-06 16:30 -37.35072 160.47872 37972 ft 400 kts 290°
2026-05-06 16:30 -37.32977 160.40139 37972 ft 400 kts 290°
2026-05-06 16:31 -37.31181 160.33525 37968 ft 400 kts 290°
2026-05-06 16:31 -37.29380 160.26910 37969 ft 400 kts 290°
2026-05-06 16:32 -37.27577 160.20307 37968 ft 400 kts 290°
2026-05-06 16:32 -37.25770 160.13704 37971 ft 400 kts 290°
2026-05-06 16:33 -37.23971 160.07147 37971 ft 399 kts 290°
2026-05-06 16:34 -37.21251 159.97264 37972 ft 399 kts 290°
2026-05-06 16:34 -37.19433 159.90678 37971 ft 399 kts 290°
2026-05-06 16:35 -37.17611 159.84096 37975 ft 399 kts 290°
2026-05-06 16:35 -37.15785 159.77515 37971 ft 399 kts 290°
2026-05-06 16:36 -37.14268 159.72058 37969 ft 399 kts 290°
2026-05-06 16:36 -37.12432 159.65473 37971 ft 399 kts 290°
2026-05-06 16:37 -37.10300 159.57841 37974 ft 399 kts 290°
2026-05-06 16:37 -37.08769 159.52378 37983 ft 399 kts 290°
2026-05-06 16:38 -37.06928 159.45821 37971 ft 398 kts 290°
2026-05-06 16:38 -37.05088 159.39283 37970 ft 398 kts 290°
2026-05-06 16:39 -37.03250 159.32767 37972 ft 396 kts 290°
2026-05-06 16:39 -37.01408 159.26254 37970 ft 396 kts 290°
2026-05-06 16:40 -36.99563 159.19747 37971 ft 396 kts 290°
2026-05-06 16:40 -36.97726 159.13283 37971 ft 396 kts 290°
2026-05-06 16:41 -36.95877 159.06792 37974 ft 396 kts 290°
2026-05-06 16:41 -36.94024 159.00304 37974 ft 396 kts 290°
2026-05-06 16:42 -36.92172 158.93832 37971 ft 396 kts 290°
2026-05-06 16:42 -36.90314 158.87359 37971 ft 396 kts 291°
2026-05-06 16:43 -36.88452 158.80882 37974 ft 396 kts 291°
2026-05-06 16:43 -36.86585 158.74406 37974 ft 396 kts 291°
2026-05-06 16:44 -36.84715 158.67934 37974 ft 396 kts 291°
2026-05-06 16:44 -36.82838 158.61456 37974 ft 396 kts 291°
2026-05-06 16:45 -36.80972 158.55027 37969 ft 396 kts 291°
2026-05-06 16:45 -36.79091 158.48562 37971 ft 396 kts 291°
2026-05-06 16:46 -36.77200 158.42080 37971 ft 396 kts 291°
2026-05-06 16:46 -36.75313 158.35626 37971 ft 396 kts 291°
2026-05-06 16:47 -36.73422 158.29174 37971 ft 396 kts 291°
2026-05-06 16:47 -36.71536 158.22756 37971 ft 396 kts 291°
2026-05-06 16:48 -36.69639 158.16312 37969 ft 395 kts 291°
2026-05-06 16:48 -36.67748 158.09904 37969 ft 393 kts 291°
2026-05-06 16:49 -36.65858 158.03512 37977 ft 393 kts 291°
2026-05-06 16:49 -36.63973 157.97156 37977 ft 393 kts 291°
2026-05-06 16:50 -36.62074 157.90765 37975 ft 393 kts 291°
2026-05-06 16:50 -36.60174 157.84384 37980 ft 393 kts 291°
2026-05-06 16:51 -36.58273 157.78017 37970 ft 392 kts 291°
2026-05-06 16:51 -36.56367 157.71645 37972 ft 392 kts 291°
2026-05-06 16:52 -36.54461 157.65289 37969 ft 392 kts 291°
2026-05-06 16:52 -36.52560 157.58967 37969 ft 392 kts 291°
2026-05-06 16:53 -36.50645 157.52609 37975 ft 392 kts 291°
2026-05-06 16:53 -36.48728 157.46259 37969 ft 392 kts 291°
2026-05-06 16:54 -36.46810 157.39921 37966 ft 392 kts 291°
2026-05-06 16:54 -36.44890 157.33590 37966 ft 392 kts 291°
2026-05-06 16:55 -36.42967 157.27263 37966 ft 391 kts 291°
2026-05-06 16:55 -36.41052 157.20976 37973 ft 392 kts 291°
2026-05-06 16:56 -36.39126 157.14666 37963 ft 390 kts 291°
2026-05-06 16:56 -36.37200 157.08371 37966 ft 389 kts 291°
2026-05-06 16:57 -36.35274 157.02090 37966 ft 389 kts 291°
2026-05-06 16:57 -36.33346 156.95817 37966 ft 389 kts 291°
2026-05-06 16:58 -36.31414 156.89544 37963 ft 389 kts 291°
2026-05-06 16:58 -36.29481 156.83281 37965 ft 388 kts 291°
2026-05-06 16:59 -36.27558 156.77065 37965 ft 388 kts 291°
2026-05-06 16:59 -36.25621 156.70816 37963 ft 388 kts 291°
2026-05-06 17:00 -36.23681 156.64573 37963 ft 388 kts 291°
2026-05-06 17:00 -36.21740 156.58337 37966 ft 388 kts 291°
2026-05-06 17:01 -36.19797 156.52111 37964 ft 387 kts 291°
2026-05-06 17:01 -36.17853 156.45895 37963 ft 387 kts 291°
2026-05-06 17:02 -36.15906 156.39681 37964 ft 387 kts 291°
2026-05-06 17:02 -36.13955 156.33469 37962 ft 387 kts 291°
2026-05-06 17:03 -36.11882 156.27323 37959 ft 387 kts 294°
2026-05-06 17:03 -36.09680 156.21247 37962 ft 386 kts 294°
2026-05-06 17:04 -36.07511 156.15223 37954 ft 386 kts 294°
2026-05-06 17:04 -36.05333 156.09155 37957 ft 386 kts 294°
2026-05-06 17:05 -36.03156 156.03097 37957 ft 386 kts 294°
2026-05-06 17:05 -36.00979 155.97045 37949 ft 386 kts 294°
2026-05-06 17:06 -35.98796 155.90991 37950 ft 385 kts 294°
2026-05-06 17:06 -35.96614 155.84948 37959 ft 385 kts 294°
2026-05-06 17:07 -35.94445 155.78954 37947 ft 385 kts 294°
2026-05-06 17:07 -35.92261 155.72928 37947 ft 385 kts 294°
2026-05-06 17:08 -35.90071 155.66901 37950 ft 385 kts 294°
2026-05-06 17:08 -35.87878 155.60873 37960 ft 385 kts 294°
2026-05-06 17:09 -35.85684 155.54857 37949 ft 385 kts 294°
2026-05-06 17:09 -35.83484 155.48833 37950 ft 384 kts 294°
2026-05-06 17:10 -35.81286 155.42829 37946 ft 384 kts 294°
2026-05-06 17:10 -35.79088 155.36837 37949 ft 388 kts 294°
2026-05-06 17:11 -35.76850 155.30746 37949 ft 391 kts 294°
2026-05-06 17:11 -35.74606 155.24649 37947 ft 391 kts 294°
2026-05-06 17:12 -35.72358 155.18555 37944 ft 391 kts 294°
2026-05-06 17:12 -35.70109 155.12469 37944 ft 391 kts 294°
2026-05-06 17:13 -35.67867 155.06416 37947 ft 391 kts 294°
2026-05-06 17:13 -35.65610 155.00330 37947 ft 391 kts 294°
2026-05-06 17:14 -35.63350 154.94251 37942 ft 390 kts 294°
2026-05-06 17:14 -35.61091 154.88186 37943 ft 390 kts 294°
2026-05-06 17:15 -35.58832 154.82131 37942 ft 390 kts 294°
2026-05-06 17:15 -35.56567 154.76073 37941 ft 390 kts 294°
2026-05-06 17:16 -35.54316 154.70062 37940 ft 390 kts 294°
2026-05-06 17:16 -35.52048 154.64018 37939 ft 389 kts 294°
2026-05-06 17:17 -35.49782 154.57991 37936 ft 388 kts 294°
2026-05-06 17:17 -35.47517 154.51980 37936 ft 388 kts 294°
2026-05-06 17:18 -35.45249 154.45968 37933 ft 388 kts 294°
2026-05-06 17:18 -35.42978 154.39961 37933 ft 388 kts 294°
2026-05-06 17:19 -35.40702 154.33955 37935 ft 388 kts 294°
2026-05-06 17:19 -35.38428 154.27964 37930 ft 388 kts 294°
2026-05-06 17:20 -35.36164 154.22009 37924 ft 388 kts 294°
2026-05-06 17:20 -35.33883 154.16019 37925 ft 387 kts 294°
2026-05-06 17:21 -35.31594 154.10021 37926 ft 387 kts 294°
2026-05-06 17:21 -35.29322 154.04080 37934 ft 387 kts 295°
2026-05-06 17:22 -35.27034 153.98106 37924 ft 387 kts 295°
2026-05-06 17:22 -35.24744 153.92140 37922 ft 387 kts 295°
2026-05-06 17:23 -35.22452 153.86178 37924 ft 387 kts 295°
2026-05-06 17:23 -35.20550 153.81240 37924 ft 386 kts 295°
2026-05-06 17:24 -35.18260 153.75301 37927 ft 386 kts 295°
2026-05-06 17:24 -35.15970 153.69376 37924 ft 385 kts 295°
2026-05-06 17:25 -35.13680 153.63461 37928 ft 385 kts 295°
2026-05-06 17:25 -35.11386 153.57548 37925 ft 385 kts 295°
2026-05-06 17:26 -35.09091 153.51640 37925 ft 385 kts 295°
2026-05-06 17:26 -35.06791 153.45734 37927 ft 385 kts 295°
2026-05-06 17:27 -35.04492 153.39837 37927 ft 384 kts 295°
2026-05-06 17:27 -35.02196 153.33961 37928 ft 384 kts 295°
2026-05-06 17:28 -34.99896 153.28084 37930 ft 384 kts 295°
2026-05-06 17:28 -34.97611 153.22256 37930 ft 384 kts 295°
2026-05-06 17:29 -34.95305 153.16385 37933 ft 384 kts 295°
2026-05-06 17:29 -34.92998 153.10522 37935 ft 383 kts 295°
2026-05-06 17:30 -34.90691 153.04671 37928 ft 383 kts 295°
2026-05-06 17:30 -34.88386 152.98834 37932 ft 382 kts 295°
2026-05-06 17:31 -34.86076 152.92993 37935 ft 382 kts 295°
2026-05-06 17:31 -34.83762 152.87155 37932 ft 382 kts 295°
2026-05-06 17:32 -34.81449 152.81327 37947 ft 382 kts 295°
2026-05-06 17:32 -34.80308 152.78459 37793 ft 380 kts 295°
2026-05-06 17:32 -34.79162 152.75578 37220 ft 378 kts 295°
2026-05-06 17:32 -34.78013 152.72691 36521 ft 380 kts 295°
2026-05-06 17:33 -34.76858 152.69793 35820 ft 382 kts 296°
2026-05-06 17:33 -34.75696 152.66879 35131 ft 383 kts 296°
2026-05-06 17:33 -34.74530 152.63959 34460 ft 384 kts 296°
2026-05-06 17:33 -34.73362 152.61036 33610 ft 383 kts 296°
2026-05-06 17:34 -34.72195 152.58119 32452 ft 385 kts 296°
2026-05-06 17:34 -34.71016 152.55173 31210 ft 390 kts 296°
2026-05-06 17:34 -34.69821 152.52192 29941 ft 395 kts 297°
2026-05-06 17:34 -34.68609 152.49171 28403 ft 400 kts 297°
2026-05-06 17:35 -34.67378 152.46103 26806 ft 407 kts 297°
2026-05-06 17:35 -34.66131 152.43001 25690 ft 407 kts 296°
2026-05-06 17:35 -34.64901 152.39940 24813 ft 399 kts 296°
2026-05-06 17:36 -34.62486 152.33944 23517 ft 394 kts 296°
2026-05-06 17:36 -34.61281 152.30953 22768 ft 393 kts 297°
2026-05-06 17:36 -34.60083 152.27984 22100 ft 390 kts 297°
2026-05-06 17:36 -34.58906 152.25072 21451 ft 388 kts 297°
2026-05-06 17:37 -34.57707 152.22106 20817 ft 385 kts 297°
2026-05-06 17:37 -34.56548 152.19240 20169 ft 382 kts 297°
2026-05-06 17:37 -34.55363 152.16315 19513 ft 380 kts 297°
2026-05-06 17:37 -34.54215 152.13483 18867 ft 378 kts 297°
2026-05-06 17:38 -34.53056 152.10625 18194 ft 378 kts 297°
2026-05-06 17:38 -34.51896 152.07769 17458 ft 377 kts 297°
2026-05-06 17:38 -34.50741 152.04928 16797 ft 374 kts 297°
2026-05-06 17:38 -34.49596 152.02113 16133 ft 371 kts 297°
2026-05-06 17:39 -34.48457 151.99314 15462 ft 369 kts 297°
2026-05-06 17:39 -34.47322 151.96530 14800 ft 367 kts 297°
2026-05-06 17:39 -34.46193 151.93760 14127 ft 366 kts 297°
2026-05-06 17:39 -34.45061 151.90986 13430 ft 365 kts 297°
2026-05-06 17:40 -34.43941 151.88243 12733 ft 362 kts 297°
2026-05-06 17:40 -34.42828 151.85522 12049 ft 359 kts 296°
2026-05-06 17:40 -34.41734 151.82848 11393 ft 357 kts 296°
2026-05-06 17:40 -34.40640 151.80175 10764 ft 352 kts 296°
2026-05-06 17:41 -34.39570 151.77564 10533 ft 336 kts 296°
2026-05-06 17:41 -34.38555 151.75090 10424 ft 318 kts 296°
2026-05-06 17:41 -34.37601 151.72765 10333 ft 300 kts 296°
2026-05-06 17:41 -34.36694 151.70557 10243 ft 285 kts 296°
2026-05-06 17:42 -34.35831 151.68456 10139 ft 272 kts 296°
2026-05-06 17:42 -34.35009 151.66456 10000 ft 261 kts 296°
2026-05-06 17:42 -34.34215 151.64524 9840 ft 253 kts 296°
2026-05-06 17:42 -34.33431 151.62619 9467 ft 252 kts 295°
2026-05-06 17:43 -34.32653 151.60731 9133 ft 249 kts 295°
2026-05-06 17:43 -34.31883 151.58859 8830 ft 247 kts 295°
2026-05-06 17:43 -34.31128 151.57031 8533 ft 245 kts 295°
2026-05-06 17:43 -34.30369 151.55191 8217 ft 244 kts 295°
2026-05-06 17:44 -34.29617 151.53367 7936 ft 242 kts 295°
2026-05-06 17:44 -34.28868 151.51554 7627 ft 240 kts 294°
2026-05-06 17:44 -34.28123 151.49751 7323 ft 239 kts 294°
2026-05-06 17:44 -34.27384 151.47965 7020 ft 237 kts 294°
2026-05-06 17:45 -34.26650 151.46190 6723 ft 235 kts 294°
2026-05-06 17:45 -34.25920 151.44423 6422 ft 234 kts 294°
2026-05-06 17:45 -34.25193 151.42666 6122 ft 233 kts 294°
2026-05-06 17:45 -34.24470 151.40918 5821 ft 231 kts 294°
2026-05-06 17:46 -34.23751 151.39182 5525 ft 231 kts 295°
2026-05-06 17:46 -34.23033 151.37451 5249 ft 229 kts 295°
2026-05-06 17:46 -34.22321 151.35734 4937 ft 228 kts 295°
2026-05-06 17:46 -34.21614 151.34029 4651 ft 226 kts 295°
2026-05-06 17:47 -34.20918 151.32358 4357 ft 226 kts 293°
2026-05-06 17:47 -34.20211 151.30658 4056 ft 227 kts 292°
2026-05-06 17:47 -34.19505 151.28957 3800 ft 226 kts 292°
2026-05-06 17:47 -34.18749 151.27297 3611 ft 225 kts 297°
2026-05-06 17:48 -34.17814 151.25774 3415 ft 227 kts 306°
2026-05-06 17:48 -34.16664 151.24452 3162 ft 230 kts 315°
2026-05-06 17:48 -34.15306 151.23363 2994 ft 236 kts 324°
2026-05-06 17:48 -34.13820 151.22620 2978 ft 226 kts 336°
2026-05-06 17:49 -34.12344 151.22210 2969 ft 215 kts 342°
2026-05-06 17:49 -34.10884 151.21847 2962 ft 214 kts 342°
2026-05-06 17:49 -34.09450 151.21469 2772 ft 206 kts 341°
2026-05-06 17:49 -34.08065 151.21100 2433 ft 200 kts 342°
2026-05-06 17:50 -34.06735 151.20755 2142 ft 190 kts 342°
2026-05-06 17:50 -34.05477 151.20427 1878 ft 179 kts 342°
2026-05-06 17:50 -34.04327 151.20128 1659 ft 164 kts 342°
2026-05-06 17:50 -34.03274 151.19853 1455 ft 148 kts 342°
2026-05-06 17:51 -34.02306 151.19600 1249 ft 138 kts 340°
2026-05-06 17:51 -34.01370 151.19354 1066 ft 136 kts 341°
2026-05-06 17:51 -34.00446 151.19111 884 ft 135 kts 344°
2026-05-06 17:51 -33.99535 151.18884 741 ft 135 kts 343°
2026-05-06 17:52 -33.98618 151.18658 515 ft 134 kts 343°
2026-05-06 17:52 -33.97716 151.18397 369 ft 134 kts 344°
2026-05-06 17:52 -33.96808 151.18177 170 ft 132 kts 343°
2026-05-06 17:52 -33.95925 151.17944 34 ft 123 kts 345°
2026-05-06 17:53 -33.95222 151.17752 32 ft 78 kts 347°
2026-05-06 17:53 -33.94770 151.17636 32 ft 62 kts 348°
2026-05-06 17:53 -33.94485 151.17510 33 ft 26 kts 328°
2026-05-06 17:53 -33.94376 151.17410 32 ft 7 kts 317°
2026-05-06 17:54 -33.94373 151.17407 32 ft 0 kts 317°
2026-05-06 17:54 -33.94350 151.17382 32 ft 7 kts 317°
2026-05-06 17:54 -33.94309 151.17337 32 ft 9 kts 317°
2026-05-06 17:55 -33.94223 151.17289 32 ft 18 kts 348°
2026-05-06 17:55 -33.94096 151.17257 32 ft 19 kts 348°
2026-05-06 17:55 -33.93994 151.17220 32 ft 12 kts 314°
2026-05-06 17:55 -33.93993 151.17126 33 ft 12 kts 252°
2026-05-06 17:56 -33.94023 151.17003 33 ft 20 kts 254°
2026-05-06 17:56 -33.94069 151.16810 33 ft 27 kts 254°
2026-05-06 17:56 -33.94124 151.16572 33 ft 29 kts 254°
2026-05-06 17:56 -33.94164 151.16404 33 ft 14 kts 255°
2026-05-06 17:57 -33.94173 151.16334 33 ft 8 kts 281°
2026-05-06 17:57 -33.94137 151.16290 33 ft 8 kts 341°
2026-05-06 17:57 -33.94080 151.16276 33 ft 11 kts 354°
2026-05-06 17:57 -33.93981 151.16296 33 ft 17 kts 13°
2026-05-06 17:58 -33.93917 151.16334 33 ft 6 kts 76°
2026-05-06 17:58 -33.93937 151.16376 33 ft 6 kts 127°
2026-05-06 17:58 -33.93952 151.16402 33 ft 2 kts 124°
2026-05-06 17:58 -33.93957 151.16412 33 ft 0 kts 123°
2026-05-06 17:59 -33.93958 151.16413 33 ft 0 kts 123°